Location: *
(55.8871°S, 37.4681°W)
Time: 01:01:51
(UTC+00:00)

Daily predictions for brighter satellites

Satellite Brightness Start Highest point End
(mag) Time Altitude Azimuth Time Altitude Azimuth Time Altitude Azimuth
Cosmos 1943 Rocket 4.4 05:35:14 21° SE 05:35:14 21° SE 05:37:09 10° SE
Cosmos 2227 Rocket 4.3 05:36:48 22° ESE 05:36:48 22° ESE 05:39:29 10° E
ATLAS 5 CENTAUR R/B 4.3 05:36:25 26° E 05:36:25 26° E 05:40:17 10° ESE
USA 267 4.3 05:41:31 10° ESE 05:45:51 40° E 05:45:51 40° E
Cosmos 2278 Rocket 4.5 05:53:28 18° SSE 05:53:28 18° SSE 05:55:06 10° SSE
Cosmos 2297 Rocket 3.9 05:58:03 30° ESE 05:58:03 30° ESE 06:01:37 10° ENE
Cosmos 2263 Rocket 4.4 06:02:30 18° SSE 06:02:30 18° SSE 06:05:44 10° SE
Cosmos 2369 Rocket 3.7 06:15:00 31° SE 06:15:00 31° SE 06:17:50 10° SE
SL-16 R/B 4.0 06:15:15 10° SSE 06:18:13 29° S 06:18:13 29° S
ATLAS 3B R/B 4.3 06:31:12 15° NNE 06:35:58 31° ENE 06:42:15 10° ESE
Okean-O 4.3 06:44:21 10° ENE 06:48:22 33° ESE 06:48:55 32° SE
Cosmos 1656 Rocket 4.1 06:49:39 56° SE 06:49:39 56° SE 06:54:02 10° SE
BREEZE-M DEB (TANK) 4.5 06:52:39 45° NNE 06:52:49 45° NE 07:03:03 10° ESE
USA 238 DEB 4.1 06:57:27 50° N 06:59:17 65° NE 07:06:24 10° SE
USA 238 4.1 06:57:30 49° N 06:59:23 65° NE 07:06:30 10° SE
IRS-1C Rocket 4.5 07:03:16 10° NNE 07:07:27 57° NNE 07:07:27 57° NNE
Feng Yun 1-1 Rocket 4.5 07:03:39 10° NNE 07:09:35 76° ESE 07:14:18 17° SSW
Cosmos 1943 Rocket 3.0 07:16:46 39° S 07:16:46 39° S 07:21:03 10° SSE
ATLAS 5 CENTAUR R/B 2.5 07:17:59 60° NW 07:19:16 82° NE 07:25:25 10° SE
Cosmos 2227 Rocket 2.2 07:18:40 68° SSW 07:19:24 84° SE 07:25:08 10° NE
Cosmos 2112 Rocket 4.0 07:22:47 68° N 07:23:23 79° ENE 07:28:40 10° SSE
ATLAS CENTAUR R/B 3.4 07:26:36 18° SSE 07:26:36 18° SSE 07:27:56 10° SE
Cosmos 1452 Rocket 3.5 07:24:47 60° S 07:25:45 80° ESE 07:31:06 10° NNE
CZ-4 R/B 3.3 07:24:41 10° ENE 07:28:04 27° ESE 07:31:10 12° S
FENGYUN 3A 4.2 07:24:02 10° N 07:27:48 44° NNW 07:27:48 44° NNW
SMAP 3.1 07:26:38 10° NNE 07:31:21 77° ESE 07:32:45 46° S
USA 267 3.2 07:24:43 10° ESE 07:31:22 89° S 07:33:12 52° WNW
Cosmos 2366 rocket 4.3 07:33:05 48° SW 07:33:05 48° SW 07:38:36 10° S
Cosmos 1812 Rocket 3.7 07:35:57 65° NNE 07:35:57 65° NNE 07:39:48 10° N
Cosmos 2278 Rocket 4.0 07:35:18 18° SSW 07:35:58 18° S 07:39:53 10° SE
Cosmos 1420 Rocket 3.9 07:35:52 69° SW 07:36:27 80° WNW 07:41:43 10° NNE
Lacrosse 5 2.6 07:35:08 38° N 07:36:33 48° NE 07:41:31 10° ESE
Exosat Rocket 4.0 07:39:26 46° SSW 07:39:26 46° SSW 07:44:23 10° SSE
CORIOLIS 4.2 07:34:15 10° NNE 07:39:39 79° ESE 07:45:07 10° SSW
IRS-P2 Rocket 4.4 07:34:26 10° NNE 07:39:43 77° WNW 07:41:35 42° SSW
Cosmos 2219 3.5 07:40:40 46° NW 07:40:40 46° NW 07:45:15 10° N
Cosmos 1461 3.6 07:39:47 48° S 07:40:36 55° SSE 07:45:14 10° ENE
Cosmos 2297 Rocket 2.1 07:39:53 58° WSW 07:40:57 73° WNW 07:46:38 10° NNE
Cosmos 1300 3.2 07:43:23 42° SSE 07:44:26 59° ESE 07:48:17 10° NNE
NOSS 3-2 (C) 4.2 07:40:49 18° NNW 07:47:11 71° NE 07:54:23 10° SE
Cosmos 2263 Rocket 3.6 07:44:11 18° SSW 07:47:38 32° SE 07:52:38 10° E
Cosmos 923 Rocket 4.1 07:48:28 55° WSW 07:48:33 55° SW 07:53:49 10° SSE
Cosmos 1356 3.8 07:55:43 57° SSE 07:56:11 64° ESE 07:59:40 10° NNE
Cosmos 389 Rocket 2.9 07:53:42 18° N 07:56:18 64° E 07:59:55 10° SSE
Cosmos 2369 Rocket 3.1 07:56:48 31° SW 07:56:49 31° SW 08:01:52 10° SSE
Lacrosse 5 rocket 1.3 07:59:18 58° N 07:59:34 61° NNE 08:03:14 10° ESE
Cosmos 2082 3.6 07:57:08 35° SW 07:59:41 80° WNW 08:05:20 10° NNE
Cosmos 1821 Rocket 3.9 07:55:08 10° NNW 08:01:29 69° WSW 08:07:49 10° S
SL-16 R/B 4.0 07:59:40 10° S 08:03:19 20° SSW 08:03:19 20° SSW
H-2A R/B 2.5 08:06:27 10° N 08:10:12 76° WNW 08:11:09 49° SSW
COSMO-SKYMED 1 4.4 08:06:48 10° SSE 08:10:51 34° E 08:14:53 10° NNE
SL-14 R/B 3.9 08:08:31 10° N 08:12:35 62° E 08:16:43 10° SSE
Cosmos 1680 Rocket 3.7 08:11:27 41° W 08:12:37 47° SW 08:17:45 10° SSE
Meteor 1-4 Rocket 2.6 08:10:53 10° NNW 08:14:43 88° ENE 08:18:35 10° SSE
Cosmos 1758 Rocket 4.1 08:11:40 10° N 08:16:03 60° E 08:20:25 10° SSE
CSL-04 Rocket 4.0 08:11:51 10° NNE 08:17:25 72° ESE 08:23:05 10° SSW
NOAA 12 4.0 08:14:35 10° NNE 08:19:53 79° WNW 08:25:16 10° SSW
CENTAUR R/B 3.0 08:12:15 10° NW 08:19:57 73° NE 08:26:34 10° SE
NOSS 3-2 (A) 3.9 08:17:59 20° WNW 08:23:49 76° SSW 08:30:54 10° SE
Okean-O 2.9 08:20:27 10° N 08:24:45 45° W 08:26:30 30° SW
Cosmos 1331 Rocket 4.1 08:20:31 16° SSW 08:24:48 77° ESE 08:30:01 10° NNE
ATLAS 3B R/B 2.9 08:18:39 10° NW 08:26:00 86° NE 08:33:31 10° SE
Meteor 2-12 Rocket 4.4 08:21:35 10° NNW 08:27:37 61° WSW 08:33:45 10° S
CZ-4 R/B 4.4 08:24:07 10° NNE 08:28:22 88° ESE 08:32:37 10° SSW
In-Cosmos 22 4.5 08:26:18 25° WNW 08:28:46 39° WSW 08:33:49 10° S
KORONAS-FOTON 4.1 08:27:42 33° WNW 08:28:58 45° WSW 08:32:48 10° S
Cosmos 1602 Rocket 3.7 08:25:40 10° NNW 08:30:05 50° WSW 08:34:32 10° S
Cosmos 2123 Rocket 4.3 08:25:33 10° SSW 08:31:32 44° W 08:37:27 10° NNW
Geosat FO 4.3 08:28:13 10° SSE 08:31:38 79° SW 08:33:51 21° NW
Envisat 3.0 08:26:37 10° NNE 08:31:46 89° ESE 08:36:59 10° SSW
Cosmos 1656 Rocket 4.4 08:31:02 29° WSW 08:32:37 34° SW 08:37:36 10° SSE
Meteor 2-5 Rocket 3.9 08:29:27 10° NW 08:34:55 48° WSW 08:40:34 10° S
Cosmos 1626 Rocket 4.0 08:32:21 17° NW 08:35:20 39° WSW 08:39:34 10° S
Cosmos-2242 3.0 08:31:00 10° SSW 08:35:30 67° W 08:39:54 10° N
Cosmos 1825 Rocket 3.6 08:31:33 10° N 08:36:03 86° E 08:40:35 10° SSE
Aureole 2 Rocket 3.9 08:37:53 18° S 08:37:53 18° S 08:39:01 10° S
Cosmos 1674 3.4 08:38:50 32° WSW 08:38:50 32° WSW 08:42:06 10° S
Cosmos 371 Rocket 3.8 08:36:41 11° SSW 08:41:22 58° ESE 08:46:12 10° NE
Cosmos 1697 Rocket 3.8 08:36:16 10° N 08:41:41 47° ENE 08:47:07 10° SE
CSL-04 Debris 4.1 08:36:18 10° NNE 08:41:46 81° WNW 08:47:19 10° SSW
YAOGAN 1 2.5 08:38:34 10° NNE 08:42:58 86° WNW 08:47:26 10° SSW
Meteor 1-24 Rocket 3.8 08:40:58 10° NW 08:46:17 51° WSW 08:51:52 10° S
Cosmos 1626 2.0 08:42:50 10° NNW 08:46:37 79° WSW 08:50:27 10° S
USA 238 DEB 3.9 08:44:55 18° W 08:50:31 60° SSW 08:57:35 10° ESE
Molniya-3 2.5 08:50:04 46° SW 08:50:31 73° SE 08:52:36 10° ENE
USA 238 3.9 08:44:59 18° W 08:50:36 60° SSW 08:57:39 10° ESE
Cosmos 1980 Rocket 4.1 08:45:33 10° N 08:50:38 34° ENE 08:55:46 10° SE
Cosmos 1656 3.8 08:48:56 10° NNW 08:54:31 81° ENE 09:00:05 10° SE
Cosmos 332 Rocket 4.2 08:51:15 10° SSW 08:56:14 66° ESE 09:01:10 10° NE
Cosmos 1459 Rocket 4.4 08:51:13 10° N 08:57:19 66° E 09:03:26 10° SSE
CZ-2D R/B 3.6 08:53:30 10° NNE 08:57:21 66° ESE 09:01:14 10° S
SKYMED 2 3.7 08:54:37 10° SSE 08:59:05 85° ENE 09:03:31 10° NNW
Cosmos 2100 Rocket 4.4 08:52:45 10° N 08:59:09 73° E 09:05:37 10° SSE
Meteor 2-10 Rocket 3.8 08:54:58 10° SSW 09:00:27 72° ESE 09:05:38 10° NNE
Cosmos 1943 Rocket 3.7 08:58:18 16° SW 09:00:45 21° SSW 09:05:03 10° SSE
Resurs 01 Rocket 4.1 08:58:26 10° E 09:01:37 19° SE 09:04:49 10° S
YAOGAN 6 2.6 08:58:06 10° N 09:01:47 69° WNW 09:05:35 10° SSW
Cosmos 2227 Rocket 3.3 09:00:30 19° WSW 09:02:52 24° WNW 09:07:19 10° NNW
CZ-4 R/B 1.7 08:59:11 10° N 09:02:57 43° W 09:06:49 10° SSW
ATLAS 5 CENTAUR R/B 2.7 08:59:33 17° W 09:04:31 50° SSW 09:10:12 10° ESE
ATLAS CENTAUR R/B 2.8 09:02:48 15° SSW 09:04:43 22° S 09:07:43 10° ESE
Cosmos 1934 Rocket 4.4 09:02:35 10° NW 09:08:16 39° WSW 09:14:02 10° S
SMAP 4.4 09:05:48 10° NW 09:09:15 20° W 09:11:13 16° WSW
Cosmos 1842 Rocket 3.6 09:06:44 10° SSW 09:11:15 85° W 09:15:43 10° N
Ariane Rocket 3.0 09:08:11 10° NNE 09:13:19 80° WNW 09:18:33 10° SSW
USA 267 3.3 09:07:47 10° E 09:14:25 84° S 09:20:33 13° W
Cosmos 2173 Rocket 4.2 09:10:01 10° N 09:16:23 85° E 09:22:53 10° SSE
Cosmos 1302 Rocket 4.0 09:11:28 10° SSW 09:16:51 79° WNW 09:22:11 10° NNE
Cosmos 1953 Rocket 3.7 09:13:18 10° NNW 09:17:45 58° WSW 09:22:18 10° S
Lacrosse 5 1.9 09:14:21 11° WNW 09:19:23 86° SSW 09:24:36 10° ESE
Cosmos 1300 4.2 09:18:23 16° WSW 09:19:42 18° W 09:22:23 10° NW
Cosmos 1461 3.7 09:16:11 15° WSW 09:19:43 41° NW 09:24:05 10° NNE
MOS 1 4.5 09:14:17 10° NNE 09:20:02 80° ESE 09:25:50 10° SSW
Cosmos 2278 Rocket 3.9 09:17:48 10° SSW 09:22:13 22° SSE 09:26:36 10° ESE
Tsikada Rocket 4.2 09:15:52 10° S 09:22:13 79° ESE 09:28:36 10° NNE
Cosmos 2297 Rocket 3.7 09:21:44 13° WSW 09:24:04 17° W 09:27:36 10° NW
Cosmos 1437 Rocket 3.4 09:20:29 10° NW 09:24:18 36° WSW 09:28:05 10° S
Cosmos 1703 3.8 09:20:30 10° N 09:24:26 66° E 09:28:27 10° SSE
Cosmos 1844 Rocket 3.9 09:19:48 10° SSW 09:25:02 37° SE 09:30:13 10° ENE
USA 116 3.9 09:23:25 10° SSE 09:27:59 70° WSW 09:31:57 10° NNW
H-2A R/B 3.3 09:24:09 10° NE 09:28:49 40° ESE 09:33:39 10° S
Meteor 2-20 Rocket 4.5 09:24:15 10° SSW 09:30:20 63° W 09:36:23 10° N
Cosmos 389 Rocket 4.1 09:29:02 10° W 09:31:28 17° WSW 09:33:53 10° SSW
Cosmos 2263 Rocket 2.2 09:26:31 10° SW 09:32:11 82° WNW 09:37:48 10° NNE
Cosmos 1455 2.6 09:29:21 10° SSW 09:33:10 46° W 09:36:57 10° NNW
Cosmos 921 Rocket 4.1 09:29:15 10° SSW 09:33:39 46° ESE 09:37:57 10° NE
Cosmos 1992 Rocket 4.3 09:29:52 10° SSW 09:35:09 69° ESE 09:40:24 10° NE
Meteor 1-27 4.2 09:29:43 10° SSW 09:35:25 85° WNW 09:41:04 10° N
Cosmos 2369 3.7 09:30:18 10° NW 09:36:02 79° SW 09:41:51 10° SSE
Geosat 4.4 09:31:32 10° N 09:36:26 48° WNW 09:41:23 10° SW
Cosmos 2016 Rocket 4.1 09:31:11 10° N 09:37:23 85° ENE 09:43:37 10° SSE
NOSS 3-2 (C) 4.0 09:30:44 10° WNW 09:38:33 59° SSW 09:45:23 10° ESE
Lacrosse 5 rocket 1.0 09:34:59 10° W 09:38:42 74° S 09:42:26 10° E
Cosmos 2369 Rocket 3.8 09:38:50 10° SW 09:42:40 18° S 09:46:31 10° SE
HJ-1C 3.6 09:40:54 10° N 09:44:17 55° W 09:47:44 10° SSW
SL-24 DEB 4.4 09:41:04 10° S 09:45:51 58° W 09:50:37 10° NNW
Cosmos 2084 Rocket 3.8 09:42:03 10° SW 09:46:24 63° SSE 09:50:47 10° ENE
COSMO-SKYMED 1 3.0 09:42:56 10° S 09:47:06 40° WSW 09:51:13 10° NW
FREGAT/IRIS 2.6 09:46:49 10° N 09:49:40 55° WNW 09:52:35 10° SSW
Meteor 1-4 Rocket 4.4 09:48:10 10° W 09:50:23 15° SW 09:52:35 10° SSW
USA 186 1.9 09:47:27 10° NNE 09:50:43 87° ESE 09:54:13 10° SSW
Cosmos 1725 Rocket 4.1 09:46:55 10° N 09:53:11 87° E 09:59:30 10° SSE
Cosmos 2221 2.8 09:49:02 10° SSW 09:53:17 50° W 09:57:28 10° N
NOAA 11 4.4 09:50:36 10° N 09:56:03 56° W 10:01:33 10° SSW
Cosmos 1939 Rocket 3.3 09:52:28 10° N 09:56:12 41° W 09:59:59 10° SSW
CZ-2C R/B 4.2 09:54:27 10° SSE 09:59:02 66° ENE 10:03:30 10° N
